Location: Montreal
(45.5087°N, 73.5540°W)
Time: 06:54:47
(UTC-04:00)

OTV 4 - Visible Passes

Search period start: 30 March 2017 00:00
Search period end: 09 April 2017 00:00
Orbit: 321 x 336 km, 38.0° (Epoch: 29 March)

Date Brightness Start Highest point End Pass type
(mag) Time Alt. Az. Time Alt. Az. Time Alt. Az.
30 Mar 2.9 05:02:03 12° SSE 05:02:03 12° SSE 05:03:00 10° SE visible
31 Mar 2.3 05:18:57 15° S 05:19:30 16° S 05:21:17 10° SE visible
01 Apr 2.2 05:35:51 13° SSW 05:37:08 17° S 05:39:05 10° SE visible
02 Apr 2.4 05:52:59 10° SW 05:54:46 16° S 05:56:33 10° SSE visible
03 Apr 3.0 04:38:41 12° SE 04:38:41 12° SE 04:39:05 10° SE visible
04 Apr 2.6 04:55:43 14° SSE 04:55:43 14° SSE 04:56:34 10° SSE visible
05 Apr 2.7 05:12:52 11° S 05:12:52 11° S 05:13:27 10° S visible
